STARLINK-11547, 62587

Orbit data source: Space-Track

STARLINK-11547, 62587 is a payload satellite owned by SpaceX/Seattle (US) in LEO that was launched on Mon, 13 Jan 2025 UTC via an FALCON 9 launch vehicle from the Air Force Eastern Test Range (AFETR). Payloads include a variety of satellites, spacecraft, and rockets equipped with specific instruments for various scientific and technological missions. These include communications satellites like Starlink; space stations such as the ISS; scientific satellites like the Hubble; Earth observation satellites from companies like Planet Labs, Umbra, and HawkEye 360; GPS; miniature CubeSats for education and research; and military/defense satellites.

Loading next visibility...
STARLINK-11547 details
Identifier
62587, 2025-008A
Orbit
LEO
Last TLE update23 hours ago
Origin
Flag of USSpaceX/Seattle (US)
ManufacturerSpaceX/Seattle
MissionOperational spacecraft
Bus & MotorSTARLINK V2M, Unknown motor
Mass730 kg wet, ~700 kg dry
Launch date (UTC)
2025-01-13 (3 weeks ago)
Launch vehicle
FALCON 9
Launch site
Air Force Eastern Test Range (AFETR)
Object type
Payload
Rocket body
Debris
Shape & HBRUnknown
Radar Cross SectionLarge (>1 m²)

Expand to show TLE details & history

TLE from 23 hours ago
0 STARLINK-11547
1 62587U 25008A   25035.31746816 -.00004456  00000-0 -22715-4 0  9996
2 62587  42.9991   9.8523 0002991 266.1234  93.9294 15.77877628  4598
Epoch: 2025-02-04T07:37Z
Definitive object data (Epoch: 2025-02-04T07:37:09.249Z)
Latitude-0.00002°
Longitude120.83926°
Altitude336.364 km
Speed7.709 km/s
True Right ascension00h 39m 24s
True Declination0° 00' 00"
Sunlit
Object was in daylight at TLE epoch
Visualization TLE readout
Latitude28.99182°
Longitude-101.31208°
Altitude338.365 km
Speed7.709 km/s
Apparent Right ascension12h 46m 54s
Apparent Declination-28° 39' 52"
Sunlit
Object is in full shadow
Visualization observer readout
Local Sidereal Time09:00:49
Azimuth132.832° SE
Elevation3.637°
Doppler factor1
Orbital elements
Apogee altitude340.452 km
Perigee altitude336.434 km
Semi-major axis6,716.58 km
Eccentricity0.0002991
Inclination42.9991°
RAAN9.8523°
Arg. of periapsis266.1234°
True anomaly93.96359°
Mean anomaly93.9294°
Eccentric anomaly93.9465°
Mean motion3.94295 °/min
BSTAR-0.000022715
Orbital period91.3 mins
Loading maneuver chart data...
Loading historical data...
Loading historical data...
Loading historical data...
Loading historical data...
Loading historical data...
Loading historical data...
Loading historical data...

STARLINK-11547 Visibility forecast

Observer location: undefined°, undefined

Span
Click to sort rows by Start time (UTC) header in descending order
Start Az.
Max El. time (UTC)
Max El. Az.
Max El.
End time (UTC)
End Az.
4 mins2025-02-06 00:50:33.505Z204.486° SW2025-02-06 00:52:33.505Z154.023° SSE22.726°2025-02-06 00:54:33.505Z97.929° ESE
4 mins2025-02-06 02:26:33.505Z266.634° W2025-02-06 02:28:33.505Z34.834° NE39.728°2025-02-06 02:30:33.505Z68.033° E
4 mins2025-02-06 04:02:33.505Z301.329° NW2025-02-06 04:03:33.505Z331.988° NNW31.408°2025-02-06 04:06:33.505Z75.296° E
4 mins2025-02-06 05:38:33.505Z284.48° WNW2025-02-06 05:39:33.505Z267.518° W42.871°2025-02-06 05:42:33.505Z112.65° SE
|